Location: Bennemühlen
(52.5740°N, 9.7135°E)
Time: 16:02:34
(UTC+00:00)

Tiros 1 despin weight - Pass Details

Date: 24 February 2026
Orbit: 556 x 593 km, 48.2° (Epoch: 11 March)

Event Time Altitude Azimuth Distance (km) Brightness Sun altitude
Rises 14:01:58 0° 252° (WSW) 2,748 ? 20.5°
Reaches altitude 10° 14:04:18 10° 246° (WSW) 1,848 ? 20.3°
Maximum altitude 14:08:19 45° 174° (S) 770 ? 19.9°
Drops below altitude 10° 14:12:19 10° 101° (ESE) 1,839 ? 19.5°
Sets 14:14:38 0° 95° (E) 2,733 ? 19.3°
